Zurück zum Katalog

INTELSAT 33E DEB

AktivMEO
NORAD 62005·DEBRIS· XX

Gestartet Aug 24, 2016 von Guiana Space Centre

Loading…

Nächste Überflüge (nächste 24 Stunden)

TLE

AktuellSource: Space-Track

Epoche: Sep 13, 2026, 06:06 UTC

1 62005U 16053X   26256.25453337 -.00000100  00000-0  00000+0 0  9992
2 62005   1.9427  93.5062 0272334 252.7838 104.9310  1.04572962  7235

Verfolge INTELSAT 33E DEB in Echtzeit mit AllMySat

Download on the App Store